CW0005 Weather Reports


time (UTC)temp
F
wind
direction
speed
knots
gust
knots
rain 1hr
in
rain 24hr
in
rain mn
in
humidity
%
barometer
mb
20260831131503 74 135 0.0 2.6 0.00 0.02 0.00 79 1012.5
20260831130008 74 135 0.0 0.0 0.00 0.02 0.00 79 1012.1
20260831124514 74 135 0.0 1.7 0.00 0.02 0.00 80 1012.0
20260831123013 73 135 0.0 0.0 0.00 0.02 0.00 80 1011.8
20260831121526 73 135 0.0 0.0 0.00 0.02 0.00 80 1011.7
20260831120019 73 135 0.0 0.0 0.00 0.02 0.00 80 1011.5
20260831114511 73 135 0.0 0.0 0.00 0.02 0.00 79 1011.3
20260831113017 73 135 0.0 0.0 0.00 0.02 0.00 79 1011.2
20260831111520 73 135 0.0 0.0 0.00 0.02 0.00 79 1011.0
20260831110022 73 135 0.0 0.0 0.00 0.02 0.00 79 1011.0
20260831104523 74 135 0.0 0.0 0.00 0.02 0.00 78 1011.0
20260831103016 74 135 0.0 0.0 0.00 0.02 0.00 78 1010.9
20260831101520 74 135 0.0 0.0 0.00 0.02 0.00 77 1010.9
20260831100015 75 135 0.0 0.0 0.00 0.02 0.00 77 1010.8
20260831094519 75 135 0.0 0.0 0.00 0.02 0.00 77 1010.7
20260831093024 75 135 0.0 0.0 0.00 0.02 0.00 77 1010.7
20260831091519 75 135 0.0 0.0 0.00 0.02 0.00 77 1010.6
20260831090004 75 135 0.0 0.0 0.00 0.02 0.00 76 1010.7
20260831084504 75 135 0.0 0.0 0.00 0.02 0.00 76 1010.8
20260831083003 75 135 0.0 0.0 0.00 0.02 0.00 77 1010.8
20260831081512 75 135 0.0 0.0 0.00 0.02 0.00 77 1010.8
20260831080004 75 135 0.0 0.0 0.00 0.02 0.00 77 1010.8
20260831074511 75 135 0.0 0.0 0.00 0.02 0.00 78 1010.8
20260831073011 75 135 0.0 0.0 0.00 0.02 0.00 79 1010.7
20260831071509 75 135 0.0 0.0 0.00 0.02 0.00 79 1010.7
20260831070007 75 135 0.0 0.0 0.00 0.02 0.00 80 1010.8
20260831064509 76 135 0.0 0.0 0.00 0.02 0.00 80 1011.0
20260831063004 76 135 0.0 0.0 0.00 0.02 0.00 80 1011.0
20260831061506 76 135 0.0 0.0 0.00 0.02 0.00 80 1011.1
20260831060014 76 135 0.0 0.0 0.00 0.02 0.00 80 1011.1
20260831054519 77 135 0.0 0.0 0.00 0.02 0.00 80 1011.1
20260831053022 77 135 0.0 0.0 0.00 0.02 0.00 80 1011.0
20260831051508 77 135 0.0 0.0 0.00 0.02 0.00 80 1010.9
20260831050031 77 135 0.0 0.0 0.00 0.02 0.00 81 1010.8
20260831044507 77 135 0.0 0.0 0.00 0.02 0.02 81 1010.8
20260831043033 77 135 0.0 0.0 0.00 0.02 0.02 81 1010.8
20260831041534 78 135 0.0 0.0 0.00 0.02 0.02 81 1010.8
20260831040023 78 135 0.0 0.0 0.00 0.02 0.02 81 1010.8
20260831034512 78 135 0.0 0.0 0.00 0.02 0.02 81 1010.9
20260831033019 78 135 0.0 0.0 0.00 0.02 0.02 81 1011.0
20260831031515 78 135 0.0 0.0 0.00 0.02 0.02 81 1011.0
20260831030025 79 135 0.0 0.0 0.00 0.02 0.02 82 1011.0
20260831024509 79 135 0.0 0.0 0.00 0.02 0.02 82 1011.0
20260831023015 79 135 0.0 0.0 0.00 0.02 0.02 82 1010.9
20260831021523 80 135 0.0 0.0 0.00 0.02 0.02 82 1011.0
20260831020027 80 135 0.0 0.0 0.00 0.02 0.02 82 1011.0
20260831014530 80 135 0.0 0.0 0.00 0.02 0.02 82 1010.9
20260831013012 81 135 0.0 0.0 0.00 0.02 0.02 81 1010.6
20260831011529 82 135 0.0 0.0 0.00 0.02 0.02 81 1010.7
20260831010014 82 135 0.0 0.0 0.00 0.02 0.02 81 1010.5
20260831004527 83 135 0.0 0.0 0.00 0.02 0.02 80 1010.7
20260831003024 83 135 0.0 0.0 0.00 0.02 0.02 80 1010.8
20260831001514 83 135 0.0 0.0 0.00 0.02 0.02 79 1010.8
20260831000018 83 135 0.0 0.0 0.00 0.02 0.02 79 1010.3
20260830234525 84 135 0.0 0.0 0.00 0.02 0.02 78 1010.5
20260830233027 84 304 0.0 0.0 0.00 0.02 0.02 77 1010.4
20260830231516 84 39 0.0 0.0 0.00 0.02 0.02 76 1010.3
20260830230024 84 40 0.0 0.9 0.00 0.02 0.02 74 1010.3
20260830224502 85 286 0.0 3.5 0.00 0.02 0.02 74 1010.2
20260830223007 84 261 0.0 2.6 0.00 0.02 0.02 75 1010.1
20260830221507 84 298 0.0 0.0 0.00 0.02 0.02 76 1010.3
20260830220014 84 184 0.0 1.7 0.00 0.02 0.02 77 1010.3
20260830214504 83 270 0.0 0.0 0.00 0.02 0.02 76 1010.3
20260830213003 82 254 0.0 1.7 0.00 0.02 0.02 76 1010.2
20260830211507 82 239 0.0 6.1 0.00 0.02 0.02 75 1010.3
20260830210018 82 229 0.0 2.6 0.00 0.02 0.02 75 1010.4
20260830204512 81 135 0.0 3.5 0.00 0.02 0.02 77 1010.6
20260830203008 81 285 0.0 0.0 0.00 0.02 0.02 78 1010.7
20260830201509 80 135 0.0 0.0 0.00 0.02 0.02 76 1011.1
20260830200003 80 135 0.0 5.2 0.00 0.02 0.02 76 1011.3
20260830194513 80 135 0.0 4.3 0.00 0.02 0.02 77 1011.2
20260830193017 80 135 0.0 3.5 0.00 0.02 0.02 73 1011.3
20260830191605 80 190 0.9 5.2 0.00 0.02 0.02 74 1011.5
20260830190023 80 135 0.0 2.6 0.00 0.02 0.02 74 1011.4
20260830184510 80 135 0.0 0.0 0.00 0.02 0.02 74 1011.3
20260830183013 80 135 0.0 0.0 0.00 0.02 0.02 74 1011.6
20260830181510 80 194 0.0 1.7 0.00 0.02 0.02 73 1011.7
20260830180033 80 135 0.0 1.7 0.00 0.02 0.02 73 1011.9
20260830174530 80 135 0.0 2.6 0.00 0.02 0.02 73 1012.1
20260830173014 79 135 0.0 3.5 0.00 0.02 0.02 76 1012.1
20260830171517 78 135 0.0 2.6 0.00 0.02 0.02 79 1012.2
20260830170022 77 135 0.0 2.6 0.01 0.02 0.02 82 1012.2
20260830164519 76 135 0.0 0.9 0.01 0.02 0.02 83 1012.3
20260830163032 76 152 0.0 0.9 0.01 0.02 0.02 85 1012.4
20260830161510 75 152 0.0 0.9 0.01 0.02 0.02 83 1012.5
20260830160030 75 152 0.0 0.9 0.01 0.01 0.01 80 1012.9
20260830154528 76 135 0.0 1.7 0.01 0.03 0.01 80 1012.7
20260830153024 76 135 0.0 1.7 0.01 0.07 0.01 80 1012.4
20260830151526 77 135 0.0 0.0 0.01 0.07 0.01 78 1012.5
20260830150021 77 135 0.0 0.9 0.00 0.08 0.00 75 1012.2
20260830144524 77 135 0.0 0.9 0.00 0.09 0.00 73 1011.9
20260830143017 77 135 0.0 1.7 0.00 0.22 0.00 72 1011.9
20260830141523 77 135 0.0 2.6 0.00 0.22 0.00 71 1011.9
20260830140024 77 135 0.9 3.5 0.00 0.22 0.00 70 1011.6
20260830134508 77 135 0.0 4.3 0.00 0.22 0.00 70 1011.6
20260830133004 77 135 0.0 4.3 0.00 0.22 0.00 69 1011.3